| time (UTC) | temp F | wind direction | speed knots | gust knots | rain 1hr in | rain 24hr in | rain mn in | humidity % | barometer mb |
| 20260505165504 | 79 | 218 | 2.6 | 7.0 | 0.00 | 0.00 | 0.00 | 42 | 1012.0 |
| 20260505165004 | 79 | 183 | 4.3 | 7.8 | 0.00 | 0.00 | 0.00 | 41 | 1012.0 |
| 20260505164504 | 79 | 238 | 1.7 | 7.8 | 0.00 | 0.00 | 0.00 | 41 | 1012.1 |
| 20260505164004 | 78 | 218 | 4.3 | 10.4 | 0.00 | 0.00 | 0.00 | 40 | 1012.1 |
| 20260505163505 | 78 | 308 | 2.6 | 7.0 | 0.00 | 0.00 | 0.00 | 42 | 1012.2 |
| 20260505162504 | 79 | 210 | 1.7 | 7.0 | 0.00 | 0.00 | 0.00 | 43 | 1012.1 |
| 20260505162005 | 78 | 194 | 1.7 | 5.2 | 0.00 | 0.00 | 0.00 | 41 | 1012.2 |
| 20260505161004 | 78 | 12 | 2.6 | 7.0 | 0.00 | 0.00 | 0.00 | 43 | 1012.2 |
| 20260505160504 | 78 | 199 | 1.7 | 6.1 | 0.00 | 0.00 | 0.00 | 43 | 1012.3 |
| 20260505153004 | 78 | 191 | 1.7 | 8.7 | 0.00 | 0.00 | 0.00 | 42 | 1012.6 |
| 20260505152504 | 77 | 257 | 1.7 | 5.2 | 0.00 | 0.00 | 0.00 | 43 | 1012.7 |
| 20260505152004 | 77 | 199 | 1.7 | 7.8 | 0.00 | 0.00 | 0.00 | 43 | 1012.7 |
| 20260505151004 | 77 | 98 | 1.7 | 7.0 | 0.00 | 0.00 | 0.00 | 43 | 1012.6 |
| 20260505150505 | 77 | 354 | 1.7 | 5.2 | 0.00 | 0.00 | 0.00 | 43 | 1012.6 |
| 20260505125004 | 66 | 6 | 1.7 | 5.2 | 0.00 | 0.00 | 0.00 | 55 | 1013.5 |
| 20260505124504 | 66 | 59 | 1.7 | 4.3 | 0.00 | 0.00 | 0.00 | 56 | 1013.4 |
| 20260505124004 | 66 | 49 | 0.9 | 4.3 | 0.00 | 0.00 | 0.00 | 57 | 1013.5 |
| 20260505123504 | 66 | 332 | 0.9 | 6.1 | 0.00 | 0.00 | 0.00 | 56 | 1013.4 |
| 20260505123004 | 65 | 350 | 1.7 | 6.1 | 0.00 | 0.00 | 0.00 | 56 | 1013.3 |
| 20260505122504 | 65 | 200 | 1.7 | 7.0 | 0.00 | 0.00 | 0.00 | 57 | 1013.3 |
| 20260505122005 | 65 | 258 | 2.6 | 7.8 | 0.00 | 0.00 | 0.00 | 58 | 1013.1 |
| 20260505121504 | 65 | 65 | 1.7 | 4.3 | 0.00 | 0.00 | 0.00 | 57 | 1013.1 |
| 20260505121005 | 64 | 348 | 1.7 | 6.1 | 0.00 | 0.00 | 0.00 | 59 | 1013.0 |
| 20260505120504 | 64 | 162 | 0.9 | 5.2 | 0.00 | 0.00 | 0.00 | 59 | 1013.0 |
| 20260505120004 | 63 | 241 | 2.6 | 6.1 | 0.00 | 0.00 | 0.00 | 59 | 1013.0 |
| 20260505115004 | 63 | 54 | 0.9 | 2.6 | 0.00 | 0.00 | 0.00 | 61 | 1013.0 |
| 20260505114504 | 63 | 218 | 2.6 | 7.8 | 0.00 | 0.00 | 0.00 | 61 | 1013.1 |
| 20260505114004 | 62 | 177 | 0.9 | 4.3 | 0.00 | 0.00 | 0.00 | 61 | 1013.0 |
| 20260505113504 | 62 | 184 | 0.0 | 2.6 | 0.00 | 0.00 | 0.00 | 62 | 1013.0 |
| 20260505113004 | 62 | 217 | 1.7 | 4.3 | 0.00 | 0.00 | 0.00 | 62 | 1013.0 |
| 20260505112504 | 62 | 203 | 0.9 | 5.2 | 0.00 | 0.00 | 0.00 | 62 | 1012.9 |
| 20260505111504 | 61 | 225 | 0.9 | 4.3 | 0.00 | 0.00 | 0.00 | 64 | 1012.7 |
| 20260505111004 | 61 | 236 | 0.9 | 2.6 | 0.00 | 0.00 | 0.00 | 64 | 1012.7 |
| 20260505110504 | 60 | 217 | 1.7 | 6.1 | 0.00 | 0.00 | 0.00 | 64 | 1012.6 |
| 20260505102004 | 60 | 188 | 0.9 | 6.1 | 0.00 | 0.00 | 0.00 | 66 | 1012.5 |
| 20260505101504 | 60 | 144 | 0.9 | 2.6 | 0.00 | 0.00 | 0.00 | 66 | 1012.4 |
| 20260505101004 | 60 | 290 | 0.9 | 2.6 | 0.00 | 0.00 | 0.00 | 66 | 1012.4 |
| 20260505100505 | 60 | 223 | 0.9 | 4.3 | 0.00 | 0.00 | 0.00 | 65 | 1012.2 |
| 20260505100004 | 60 | 192 | 1.7 | 5.2 | 0.00 | 0.00 | 0.00 | 65 | 1012.2 |
| 20260505095504 | 60 | 195 | 0.9 | 4.3 | 0.00 | 0.00 | 0.00 | 64 | 1012.2 |
| 20260505095004 | 60 | 254 | 0.9 | 4.3 | 0.00 | 0.00 | 0.00 | 65 | 1012.2 |
| 20260505094504 | 60 | 206 | 1.7 | 4.3 | 0.00 | 0.00 | 0.00 | 65 | 1012.0 |
| 20260505094004 | 60 | 192 | 2.6 | 5.2 | 0.00 | 0.00 | 0.00 | 64 | 1012.0 |
| 20260505093004 | 61 | 210 | 3.5 | 7.0 | 0.00 | 0.00 | 0.00 | 64 | 1011.9 |
| 20260505092504 | 60 | 198 | 3.5 | 7.8 | 0.00 | 0.00 | 0.00 | 64 | 1012.0 |
| 20260505092004 | 60 | 203 | 3.5 | 6.1 | 0.00 | 0.00 | 0.00 | 65 | 1012.0 |
| 20260505090505 | 60 | 199 | 3.5 | 6.1 | 0.00 | 0.00 | 0.00 | 64 | 1012.0 |
| 20260505085504 | 61 | 189 | 3.5 | 7.0 | 0.00 | 0.00 | 0.00 | 64 | 1011.9 |
| 20260505085004 | 61 | 204 | 2.6 | 6.1 | 0.00 | 0.00 | 0.00 | 63 | 1011.8 |
| 20260505084504 | 61 | 218 | 3.5 | 7.0 | 0.00 | 0.00 | 0.00 | 63 | 1011.8 |
| 20260505084004 | 60 | 206 | 3.5 | 7.8 | 0.00 | 0.00 | 0.00 | 63 | 1011.8 |
| 20260505083504 | 60 | 213 | 1.7 | 6.1 | 0.00 | 0.00 | 0.00 | 64 | 1011.9 |
| 20260505083004 | 60 | 193 | 0.9 | 6.1 | 0.00 | 0.00 | 0.00 | 64 | 1012.1 |
| 20260505082504 | 60 | 206 | 1.7 | 5.2 | 0.00 | 0.00 | 0.00 | 65 | 1012.0 |
| 20260505081504 | 61 | 188 | 1.7 | 6.1 | 0.00 | 0.00 | 0.00 | 63 | 1012.0 |
| 20260505081004 | 61 | 200 | 1.7 | 6.1 | 0.00 | 0.00 | 0.00 | 63 | 1012.1 |
| 20260505080505 | 61 | 252 | 0.9 | 2.6 | 0.00 | 0.00 | 0.00 | 63 | 1012.1 |
| 20260505080004 | 61 | 167 | 0.9 | 2.6 | 0.00 | 0.00 | 0.00 | 63 | 1011.9 |
| 20260505075504 | 61 | 201 | 0.9 | 2.6 | 0.00 | 0.00 | 0.00 | 62 | 1011.9 |
| 20260505075004 | 62 | 203 | 1.7 | 6.1 | 0.00 | 0.00 | 0.00 | 61 | 1012.0 |
| 20260505074504 | 62 | 205 | 2.6 | 5.2 | 0.00 | 0.00 | 0.00 | 61 | 1012.0 |
| 20260505074004 | 62 | 215 | 3.5 | 7.0 | 0.00 | 0.00 | 0.00 | 60 | 1012.0 |
| 20260505073504 | 62 | 208 | 2.6 | 5.2 | 0.00 | 0.00 | 0.00 | 60 | 1012.1 |
| 20260505072504 | 62 | 175 | 0.9 | 4.3 | 0.00 | 0.00 | 0.00 | 59 | 1011.9 |
| 20260505072004 | 62 | 190 | 1.7 | 7.0 | 0.00 | 0.00 | 0.00 | 58 | 1012.0 |
| 20260505071505 | 62 | 249 | 1.7 | 4.3 | 0.00 | 0.00 | 0.00 | 58 | 1012.0 |
| 20260505071004 | 62 | 78 | 1.7 | 6.1 | 0.00 | 0.00 | 0.00 | 59 | 1011.9 |
| 20260505070504 | 62 | 90 | 0.0 | 6.1 | 0.00 | 0.00 | 0.00 | 59 | 1012.0 |
| 20260505070004 | 62 | 190 | 1.7 | 5.2 | 0.00 | 0.00 | 0.00 | 59 | 1012.0 |
| 20260505065504 | 62 | 222 | 2.6 | 7.0 | 0.00 | 0.00 | 0.00 | 59 | 1012.0 |
| 20260505065004 | 62 | 216 | 2.6 | 5.2 | 0.00 | 0.00 | 0.00 | 59 | 1012.0 |
| 20260505064504 | 62 | 205 | 2.6 | 6.1 | 0.00 | 0.00 | 0.00 | 59 | 1012.0 |
| 20260505064004 | 62 | 214 | 2.6 | 7.0 | 0.00 | 0.00 | 0.00 | 59 | 1011.9 |
| 20260505063504 | 61 | 179 | 3.5 | 7.0 | 0.00 | 0.00 | 0.00 | 60 | 1012.0 |
| 20260505062504 | 61 | 191 | 3.5 | 6.1 | 0.00 | 0.00 | 0.00 | 60 | 1012.1 |
| 20260505062004 | 61 | 194 | 2.6 | 7.8 | 0.00 | 0.00 | 0.00 | 60 | 1012.1 |
| 20260505061504 | 62 | 210 | 2.6 | 7.0 | 0.00 | 0.00 | 0.00 | 58 | 1012.0 |
| 20260505061004 | 61 | 209 | 2.6 | 7.0 | 0.00 | 0.00 | 0.00 | 58 | 1011.9 |
| 20260505055004 | 61 | 202 | 2.6 | 6.1 | 0.00 | 0.00 | 0.00 | 59 | 1012.0 |
| 20260505054504 | 61 | 194 | 2.6 | 7.8 | 0.00 | 0.00 | 0.00 | 58 | 1012.1 |
| 20260505054004 | 61 | 216 | 2.6 | 5.2 | 0.00 | 0.00 | 0.00 | 58 | 1012.0 |
| 20260505053504 | 61 | 193 | 4.3 | 6.1 | 0.00 | 0.00 | 0.00 | 58 | 1011.9 |
| 20260505053004 | 61 | 189 | 3.5 | 7.0 | 0.00 | 0.00 | 0.00 | 57 | 1011.9 |
| 20260505052504 | 61 | 198 | 4.3 | 10.4 | 0.00 | 0.00 | 0.00 | 56 | 1012.0 |
| 20260505052004 | 61 | 216 | 4.3 | 7.8 | 0.00 | 0.00 | 0.00 | 57 | 1012.0 |
| 20260505051505 | 61 | 202 | 5.2 | 7.8 | 0.00 | 0.00 | 0.00 | 57 | 1012.0 |
| 20260505051004 | 61 | 210 | 4.3 | 8.7 | 0.00 | 0.00 | 0.00 | 56 | 1012.1 |
| 20260505050505 | 61 | 216 | 2.6 | 7.0 | 0.00 | 0.00 | 0.00 | 56 | 1012.1 |
| 20260505041504 | 62 | 218 | 4.3 | 7.0 | 0.00 | 0.00 | 0.00 | 52 | 1012.1 |
| 20260505041004 | 62 | 167 | 2.6 | 7.0 | 0.00 | 0.00 | 0.00 | 51 | 1012.0 |
| 20260505040505 | 62 | 202 | 3.5 | 7.0 | 0.00 | 0.00 | 0.00 | 51 | 1011.8 |
| 20260505040005 | 62 | 217 | 4.3 | 8.7 | 0.00 | 0.00 | 0.00 | 50 | 1011.8 |
| 20260505035505 | 62 | 201 | 4.3 | 7.8 | 0.00 | 0.00 | 0.00 | 50 | 1011.8 |
| 20260505035004 | 62 | 199 | 3.5 | 7.0 | 0.00 | 0.00 | 0.00 | 50 | 1011.8 |
| 20260505034504 | 62 | 197 | 4.3 | 7.0 | 0.00 | 0.00 | 0.00 | 50 | 1011.8 |
| 20260505034004 | 63 | 198 | 4.3 | 10.4 | 0.00 | 0.00 | 0.00 | 49 | 1011.8 |
| 20260505033504 | 63 | 213 | 5.2 | 7.8 | 0.00 | 0.00 | 0.00 | 49 | 1011.9 |
| 20260505033004 | 63 | 191 | 4.3 | 7.0 | 0.00 | 0.00 | 0.00 | 49 | 1011.9 |
| 20260505032504 | 63 | 205 | 2.6 | 7.0 | 0.00 | 0.00 | 0.00 | 48 | 1011.9 |
| 20260505032004 | 63 | 209 | 3.5 | 6.1 | 0.00 | 0.00 | 0.00 | 48 | 1012.0 |
| 20260505031504 | 63 | 197 | 4.3 | 8.7 | 0.00 | 0.00 | 0.00 | 47 | 1012.0 |
| 20260505030504 | 63 | 218 | 3.5 | 7.8 | 0.00 | 0.00 | 0.00 | 47 | 1012.0 |
| 20260505025504 | 64 | 203 | 4.3 | 7.8 | 0.00 | 0.00 | 0.00 | 47 | 1012.0 |
| 20260505025004 | 64 | 198 | 4.3 | 10.4 | 0.00 | 0.00 | 0.00 | 46 | 1011.9 |
| 20260505024504 | 64 | 205 | 4.3 | 7.0 | 0.00 | 0.00 | 0.00 | 46 | 1012.0 |
| 20260505023504 | 64 | 205 | 4.3 | 8.7 | 0.00 | 0.00 | 0.00 | 45 | 1012.2 |
| 20260505022504 | 64 | 210 | 3.5 | 7.0 | 0.00 | 0.00 | 0.00 | 46 | 1012.2 |
| 20260505022004 | 64 | 188 | 3.5 | 7.8 | 0.00 | 0.00 | 0.00 | 46 | 1012.2 |
| 20260505021504 | 64 | 216 | 4.3 | 10.4 | 0.00 | 0.00 | 0.00 | 45 | 1012.3 |
| 20260505021004 | 64 | 215 | 3.5 | 8.7 | 0.00 | 0.00 | 0.00 | 45 | 1012.2 |
| 20260505020504 | 64 | 209 | 3.5 | 7.0 | 0.00 | 0.00 | 0.00 | 46 | 1012.2 |
| 20260505020004 | 65 | 181 | 2.6 | 7.0 | 0.00 | 0.00 | 0.00 | 45 | 1012.2 |
| 20260505015504 | 65 | 211 | 2.6 | 7.8 | 0.00 | 0.00 | 0.00 | 44 | 1012.2 |
| 20260505014505 | 65 | 209 | 1.7 | 6.1 | 0.00 | 0.00 | 0.00 | 45 | 1012.1 |
| 20260505014004 | 65 | 212 | 2.6 | 7.0 | 0.00 | 0.00 | 0.00 | 46 | 1012.2 |
| 20260505013505 | 65 | 207 | 1.7 | 5.2 | 0.00 | 0.00 | 0.00 | 45 | 1012.2 |
| 20260505013004 | 65 | 211 | 2.6 | 7.8 | 0.00 | 0.00 | 0.00 | 45 | 1012.1 |
| 20260505012004 | 65 | 205 | 2.6 | 7.8 | 0.00 | 0.00 | 0.00 | 44 | 1012.1 |
| 20260505011504 | 65 | 218 | 3.5 | 7.8 | 0.00 | 0.00 | 0.00 | 44 | 1012.1 |
| 20260505011003 | 64 | 214 | 2.6 | 5.2 | 0.00 | 0.00 | 0.00 | 44 | 1012.0 |
| 20260505010504 | 65 | 213 | 2.6 | 6.1 | 0.00 | 0.00 | 0.00 | 45 | 1011.9 |
| 20260505010004 | 65 | 212 | 1.7 | 4.3 | 0.00 | 0.00 | 0.00 | 44 | 1011.8 |
| 20260505005504 | 65 | 205 | 2.6 | 6.1 | 0.00 | 0.00 | 0.00 | 44 | 1011.8 |
| 20260505004504 | 65 | 195 | 1.7 | 6.1 | 0.00 | 0.00 | 0.00 | 44 | 1011.7 |
| 20260505004004 | 65 | 199 | 0.9 | 2.6 | 0.00 | 0.00 | 0.00 | 44 | 1011.6 |
| 20260505003505 | 65 | 195 | 0.9 | 1.7 | 0.00 | 0.00 | 0.00 | 43 | 1011.6 |
| 20260505003004 | 65 | 218 | 0.9 | 2.6 | 0.00 | 0.00 | 0.00 | 43 | 1011.6 |
| 20260505002503 | 66 | 225 | 0.9 | 6.1 | 0.00 | 0.00 | 0.00 | 43 | 1011.6 |
| 20260505001504 | 66 | 210 | 1.7 | 2.6 | 0.00 | 0.00 | 0.00 | 42 | 1011.5 |
| 20260505001004 | 66 | 196 | 2.6 | 6.1 | 0.00 | 0.00 | 0.00 | 41 | 1011.5 |
| 20260505000504 | 67 | 225 | 1.7 | 4.3 | 0.00 | 0.00 | 0.00 | 41 | 1011.4 |
| 20260505000004 | 67 | 208 | 1.7 | 4.3 | 0.00 | 0.00 | 0.00 | 41 | 1011.4 |
| 20260504235004 | 67 | 184 | 1.7 | 5.2 | 0.00 | 0.00 | 0.00 | 40 | 1011.4 |
| 20260504234504 | 67 | 191 | 0.9 | 4.3 | 0.00 | 0.00 | 0.00 | 40 | 1011.4 |
| 20260504233504 | 68 | 207 | 1.7 | 4.3 | 0.00 | 0.00 | 0.00 | 39 | 1011.4 |
| 20260504233004 | 68 | 205 | 2.6 | 6.1 | 0.00 | 0.00 | 0.00 | 38 | 1011.4 |
| 20260504232506 | 68 | 190 | 0.9 | 7.8 | 0.00 | 0.00 | 0.00 | 39 | 1011.2 |
| 20260504232004 | 68 | 199 | 1.7 | 7.0 | 0.00 | 0.00 | 0.00 | 38 | 1011.3 |
| 20260504231504 | 69 | 192 | 2.6 | 7.0 | 0.00 | 0.00 | 0.00 | 37 | 1011.3 |
| 20260504231004 | 69 | 184 | 2.6 | 6.1 | 0.00 | 0.00 | 0.00 | 38 | 1011.3 |
| 20260504230504 | 69 | 198 | 4.3 | 7.8 | 0.00 | 0.00 | 0.00 | 37 | 1011.2 |
| 20260504230004 | 69 | 204 | 2.6 | 6.1 | 0.00 | 0.00 | 0.00 | 38 | 1011.3 |
| 20260504225504 | 69 | 200 | 0.9 | 6.1 | 0.00 | 0.00 | 0.00 | 38 | 1011.3 |
| 20260504225005 | 69 | 220 | 2.6 | 6.1 | 0.00 | 0.00 | 0.00 | 37 | 1011.2 |
| 20260504224503 | 69 | 205 | 1.7 | 6.1 | 0.00 | 0.00 | 0.00 | 37 | 1011.2 |
| 20260504224004 | 69 | 253 | 1.7 | 6.1 | 0.00 | 0.00 | 0.00 | 36 | 1011.3 |
| 20260504223504 | 69 | 166 | 0.9 | 5.2 | 0.00 | 0.00 | 0.00 | 38 | 1011.3 |
| 20260504223004 | 69 | 211 | 2.6 | 7.8 | 0.00 | 0.00 | 0.00 | 37 | 1011.4 |
| 20260504221504 | 70 | 188 | 4.3 | 8.7 | 0.00 | 0.00 | 0.00 | 37 | 1011.4 |
| 20260504221004 | 70 | 142 | 1.7 | 6.1 | 0.00 | 0.00 | 0.00 | 38 | 1011.5 |
| 20260504220504 | 70 | 200 | 2.6 | 7.0 | 0.00 | 0.00 | 0.00 | 37 | 1011.4 |
| 20260504220004 | 70 | 196 | 3.5 | 7.8 | 0.00 | 0.00 | 0.00 | 37 | 1011.4 |
| 20260504215504 | 69 | 185 | 0.9 | 7.8 | 0.00 | 0.00 | 0.00 | 38 | 1011.5 |
| 20260504214504 | 70 | 227 | 2.6 | 7.8 | 0.00 | 0.00 | 0.00 | 38 | 1011.5 |
| 20260504214004 | 70 | 239 | 1.7 | 5.2 | 0.00 | 0.00 | 0.00 | 38 | 1011.6 |
| 20260504213504 | 70 | 221 | 1.7 | 8.7 | 0.00 | 0.00 | 0.00 | 39 | 1011.5 |
| 20260504212504 | 70 | 201 | 0.9 | 4.3 | 0.00 | 0.00 | 0.00 | 38 | 1011.6 |
| 20260504212004 | 70 | 70 | 1.7 | 6.1 | 0.00 | 0.00 | 0.00 | 38 | 1011.6 |
| 20260504211504 | 70 | 233 | 2.6 | 11.3 | 0.00 | 0.00 | 0.00 | 38 | 1011.4 |
| 20260504211004 | 70 | 194 | 2.6 | 7.0 | 0.00 | 0.00 | 0.00 | 37 | 1011.5 |
| 20260504210004 | 70 | 232 | 1.7 | 7.8 | 0.00 | 0.00 | 0.00 | 38 | 1011.5 |
| 20260504205504 | 71 | 223 | 2.6 | 5.2 | 0.00 | 0.00 | 0.00 | 38 | 1011.5 |
| 20260504205004 | 71 | 340 | 1.7 | 5.2 | 0.00 | 0.00 | 0.00 | 38 | 1011.5 |
| 20260504204505 | 71 | 162 | 1.7 | 7.0 | 0.00 | 0.00 | 0.00 | 39 | 1011.5 |
| 20260504203504 | 71 | 179 | 1.7 | 7.0 | 0.00 | 0.00 | 0.00 | 38 | 1011.6 |
| 20260504203004 | 71 | 212 | 1.7 | 6.1 | 0.00 | 0.00 | 0.00 | 37 | 1011.6 |
| 20260504202504 | 71 | 178 | 1.7 | 5.2 | 0.00 | 0.00 | 0.00 | 38 | 1011.7 |
| 20260504202004 | 71 | 207 | 1.7 | 6.1 | 0.00 | 0.00 | 0.00 | 38 | 1011.7 |
| 20260504201504 | 71 | 211 | 1.7 | 8.7 | 0.00 | 0.00 | 0.00 | 38 | 1011.7 |
| 20260504201004 | 71 | 148 | 1.7 | 7.8 | 0.00 | 0.00 | 0.00 | 37 | 1011.7 |
| 20260504200505 | 71 | 258 | 1.7 | 6.1 | 0.00 | 0.00 | 0.00 | 38 | 1011.7 |
| 20260504195504 | 71 | 179 | 1.7 | 6.1 | 0.00 | 0.00 | 0.00 | 38 | 1011.9 |
| 20260504195004 | 71 | 258 | 2.6 | 7.0 | 0.00 | 0.00 | 0.00 | 37 | 1011.9 |
| 20260504194504 | 71 | 193 | 2.6 | 6.1 | 0.00 | 0.00 | 0.00 | 37 | 1011.8 |
| 20260504194004 | 70 | 289 | 1.7 | 7.0 | 0.00 | 0.00 | 0.00 | 36 | 1011.9 |
| 20260504193504 | 70 | 200 | 1.7 | 6.1 | 0.00 | 0.00 | 0.00 | 38 | 1012.0 |
| 20260504193004 | 70 | 198 | 3.5 | 7.8 | 0.00 | 0.00 | 0.00 | 37 | 1012.0 |
| 20260504192503 | 70 | 205 | 1.7 | 7.0 | 0.00 | 0.00 | 0.00 | 39 | 1012.1 |
| 20260504192004 | 70 | 200 | 2.6 | 8.7 | 0.00 | 0.00 | 0.00 | 38 | 1012.1 |
| 20260504191504 | 70 | 63 | 2.6 | 7.0 | 0.00 | 0.00 | 0.00 | 39 | 1012.2 |
| 20260504191004 | 70 | 228 | 3.5 | 7.8 | 0.00 | 0.00 | 0.00 | 39 | 1012.3 |
| 20260504190504 | 70 | 208 | 3.5 | 7.0 | 0.00 | 0.00 | 0.00 | 38 | 1012.2 |
| 20260504190004 | 70 | 345 | 3.5 | 7.8 | 0.00 | 0.00 | 0.00 | 38 | 1012.3 |
| 20260504185004 | 70 | 209 | 3.5 | 7.8 | 0.00 | 0.00 | 0.00 | 38 | 1012.4 |
| 20260504184504 | 70 | 178 | 2.6 | 7.0 | 0.00 | 0.00 | 0.00 | 37 | 1012.6 |
| 20260504184004 | 69 | 212 | 0.9 | 6.1 | 0.00 | 0.00 | 0.00 | 39 | 1012.7 |
| 20260504183504 | 68 | 209 | 6.1 | 10.4 | 0.00 | 0.00 | 0.00 | 38 | 1012.6 |
| 20260504183005 | 68 | 216 | 4.3 | 7.8 | 0.00 | 0.00 | 0.00 | 38 | 1012.7 |
| 20260504182504 | 68 | 244 | 5.2 | 8.7 | 0.00 | 0.00 | 0.00 | 37 | 1012.7 |
| 20260504182004 | 69 | 205 | 2.6 | 8.7 | 0.00 | 0.00 | 0.00 | 37 | 1012.9 |
| 20260504181504 | 69 | 230 | 1.7 | 6.1 | 0.00 | 0.00 | 0.00 | 37 | 1012.9 |
| 20260504180504 | 69 | 187 | 2.6 | 12.2 | 0.00 | 0.00 | 0.00 | 39 | 1013.1 |
| 20260504180004 | 69 | 208 | 2.6 | 6.1 | 0.00 | 0.00 | 0.00 | 37 | 1013.2 |
| 20260504175004 | 69 | 320 | 1.7 | 6.1 | 0.00 | 0.00 | 0.00 | 38 | 1013.2 |
| 20260504174504 | 69 | 348 | 0.9 | 5.2 | 0.00 | 0.00 | 0.00 | 39 | 1013.3 |
| 20260504174004 | 69 | 188 | 3.5 | 7.8 | 0.00 | 0.00 | 0.00 | 38 | 1013.4 |
| 20260504173504 | 69 | 254 | 1.7 | 7.0 | 0.00 | 0.00 | 0.00 | 39 | 1013.6 |
| 20260504173004 | 69 | 94 | 1.7 | 5.2 | 0.00 | 0.00 | 0.00 | 38 | 1013.5 |
| 20260504172004 | 68 | 324 | 2.6 | 6.1 | 0.00 | 0.00 | 0.00 | 37 | 1013.5 |
| 20260504171504 | 68 | 212 | 4.3 | 7.8 | 0.00 | 0.00 | 0.00 | 38 | 1013.6 |
| 20260504171004 | 67 | 182 | 1.7 | 7.8 | 0.00 | 0.00 | 0.00 | 38 | 1013.8 |
| 20260504170504 | 68 | 225 | 2.6 | 11.3 | 0.00 | 0.00 | 0.00 | 39 | 1013.9 |